This is the latest recevied weather packets stored in our database for station/object KT1D-13. If no packets are shown the sender has not sent any weather packets the latest 10 day(s).
| Time | Temp. | Humidity | Pressure | Rain* | Wind** | Luminosity | Snow |
|---|---|---|---|---|---|---|---|
| 1777950920 | 14.44° C | 60% | 1009.8 hPa | 0 mm | - | 0 W/m² | - |
| 1777943721 | 16.11° C | 51% | 1009.4 hPa | 0 mm | - | 0 W/m² | - |
| 1777942521 | 16.67° C | 49% | 1009 hPa | 0 mm | - | 0 W/m² | - |
| 1777941359 | 17.22° C | 49% | 1008.6 hPa | 0 mm | - | 0 W/m² | - |
| 1777939522 | 17.78° C | 47% | 1007.9 hPa | 0 mm | - | 1 W/m² | - |
| 1777938919 | 17.78° C | 47% | 1007.7 hPa | 0 mm | - | 2 W/m² | - |
| 1777937716 | 18.89° C | 44% | 1007.3 hPa | 0 mm | - | 11 W/m² | - |
| 1777931118 | 21.11° C | 34% | 1006.3 hPa | 0 mm | - | 307 W/m² | - |
| 1777927519 | 21.11° C | 34% | 1006.2 hPa | 0 mm | - | 493 W/m² | - |
| 1777923920 | 21.11° C | 33% | 1006.4 hPa | 0 mm | - | 686 W/m² | - |
| 1777917319 | 19.44° C | 34% | 1007 hPa | 0 mm | - | 914 W/m² | - |
| 1777910120 | 18.33° C | 37% | 1008.1 hPa | 0 mm | - | 911 W/m² | - |
| 1777902316 | 15.56° C | 44% | 1009.5 hPa | 0 mm | - | 629 W/m² | - |
| 1777901120 | 14.44° C | 45% | 1009.8 hPa | 0 mm | - | 570 W/m² | - |
| 1777899920 | 13.89° C | 46% | 1009.9 hPa | 0 mm | - | 511 W/m² | - |
| 1777899321 | 13.33° C | 48% | 1010 hPa | 0 mm | - | 477 W/m² | - |
| 1777896918 | 11.67° C | 49% | 1010.1 hPa | 0 mm | - | 326 W/m² | - |
| 1777895118 | 11.11° C | 51% | 1010.1 hPa | 0 mm | - | 303 W/m² | - |
| 1777894518 | 11.11° C | 51% | 1010.1 hPa | 0 mm | - | 193 W/m² | - |
| 1777889759 | 7.22° C | 61% | 1010.1 hPa | 0 mm | - | 28 W/m² | - |
| 1777886720 | 7.78° C | 59% | 1009.9 hPa | 0 mm | - | 0 W/m² | - |
| 1777884321 | 7.78° C | 57% | 1010 hPa | 0 mm | - | 0 W/m² | - |
| 1777882521 | 8.33° C | 56% | 1009.9 hPa | 0 mm | - | 0 W/m² | - |
| 1777877143 | 6.67° C | 63% | 1009.8 hPa | 0 mm | - | 0 W/m² | - |
| 1777875943 | 6.11° C | 64% | 1009.8 hPa | 0 mm | - | 0 W/m² | - |
* Rain latest hour (hover to see other rain measurements)
** Current wind speed in m/s (hover to see current wind gust speed)